Regional Weather Roundup
Issued by NWS Charleston, WV

Home | Current Version | Previous Version | Graphics & Text | Print | Product List | Glossary On
Versions: 1 2 3 4 5 6 7 8 9 10 11 12 13 14 15 16 17 18 19 20 21 22 23 24 25 26 27 28 29 30 31 32 33 34 35 36 37 38 39 40 41 42 43 44 45 46 47 48 49 50
000
ASUS41 KRLX 270810
RWRRLX
West Virginia Regional Weather Roundup
National Weather Service Charleston WV
300 AM EST FRI FEB 27 2015

Note: "fair" indicates few or no clouds below 12,000 feet with no
significant weather and/or obstructions to visibility.

WVZ003-270900-
Northern Panhandle of West Virginia

CITY           SKY/WX    TMP DP  RH WIND       PRES   REMARKS
WHEELING       PTCLDY     7   1  76 NW6       30.27R WCI  -3
$$

WVZ009-270900-
Northwest West Virginia

CITY           SKY/WX    TMP DP  RH WIND       PRES   REMARKS
PARKERSBURG    CLEAR     11   5  77 VRB5      30.35R WCI   3
$$

WVZ006-270900-
Western West Virginia

CITY           SKY/WX    TMP DP  RH WIND       PRES   REMARKS
HUNTINGTON     CLOUDY    15   8  73 NW5       30.34R WCI   8
$$

WVZ015-270900-
West Central West Virginia

CITY           SKY/WX    TMP DP  RH WIND       PRES   REMARKS
CHARLESTON     LGT SNOW  19  13  77 NW8       30.28R WCI   9
$$

WVZ022-031-270900-
North Central West Virginia

CITY           SKY/WX    TMP DP  RH WIND       PRES   REMARKS
CLARKSBURG     LGT SNOW  15  10  80 N9        30.24R WCI   3
MORGANTOWN     CLOUDY    13   5  70 N5        30.26R HAZE    WCI   5
$$

WVZ025-035-042-045-270900-
Southern West Virginia

CITY           SKY/WX    TMP DP  RH WIND       PRES   REMARKS
BECKLEY        CLOUDY    20  13  74 NW8       30.13R
LOGAN          FLURRIES  19  18  93 CALM      30.19R
BLUEFIELD      FLURRIES  23  15  71 W7        30.10S
LEWISBURG      PTCLDY    23  14  68 W5        30.13R
$$

WVZ047-270900-
Northern Mountains of West Virginia

CITY           SKY/WX    TMP DP  RH WIND       PRES   REMARKS
ELKINS         LGT SNOW N/A N/A N/A NW7       30.15R
$$

WVZ052-270900-
Eastern Panhandle of West Virginia

CITY           SKY/WX    TMP DP  RH WIND       PRES   REMARKS
MARTINSBURG    CLOUDY    26  21  81 E5        30.19R HAZE
PETERSBURG     CLOUDY    28  14  56 NW3       30.19R
$$



USA.gov is the U.S. government's official web portal to all federal, state and local government web resources and services.